Wind_Speed
59 57 54 54 53 53 54 53 54 55 55 53 53 55 54 54 57 57 57 60 64 67 68 69 73 71 65 62 62 62 64 62 61 59 52 49 50 50 49 50 49 48 48 47 44 42 40 40 40 42 43 45 46 47 48 48 49 49 49 49 49 50 51 51 52 52 52 52 50 48 45 42 39 37 36 36 36 38 40 42 41 38 35 32 30 31
59 56 54 55 54 54 54 54 56 56 54 52 53 54 54 54 56 56 53 54 60 65 67 69 72 71 67 62 61 64 64 63 60 57 53 50 50 50 49 48 48 47 46 45 44 44 43 43 44 44 45 46 47 48 48 49 50 49 49 49 50 51 52 52 53 53 53 53 51 48 44 41 39 37 36 36 36 38 38 39 38 36 34 32 30 30
58 56 55 56 55 55 55 55 56 54 51 52 54 55 54 54 56 56 51 51 56 61 65 68 71 72 68 62 63 65 65 62 59 56 53 50 49 49 47 47 48 47 46 44 43 44 45 44 44 45 46 46 47 47 48 49 49 49 49 50 51 52 52 53 53 53 53 53 51 47 43 40 38 37 36 36 36 37 37 37 37 35 33 32 31 29
58 56 57 57 56 55 55 56 55 52 51 53 54 54 53 52 55 54 48 50 54 57 62 64 67 71 67 63 65 66 65 62 59 56 52 49 48 46 44 45 47 46 44 42 41 43 44 44 43 44 45 45 46 47 47 48 48 49 50 51 52 53 53 54 54 54 54 53 50 47 43 39 37 36 36 36 37 37 37 38 37 35 33 32 32 31
59 59 59 58 57 56 56 56 54 52 53 53 53 53 52 52 54 52 48 51 53 57 62 59 62 67 65 64 66 66 65 62 58 54 51 50 49 46 46 46 44 44 44 41 39 41 43 44 44 45 46 46 47 47 48 48 49 50 51 52 53 53 54 54 54 54 54 52 50 46 43 40 38 36 36 37 37 38 38 38 38 36 34 32 33 33
62 62 59 58 57 57 56 56 55 54 54 53 53 53 52 52 54 51 49 51 52 56 59 55 57 62 62 65 66 66 65 62 59 55 52 51 50 48 50 49 45 43 44 41 40 42 43 44 45 46 48 48 48 49 49 50 50 51 52 52 53 54 54 54 55 55 54 52 49 45 42 40 39 38 37 38 38 38 38 38 38 37 35 34 36 36
64 62 60 59 58 57 57 56 55 55 54 54 54 53 53 53 51 49 47 49 52 55 55 53 55 58 60 63 64 65 65 63 60 56 52 52 52 50 50 49 48 46 45 44 44 45 45 44 45 47 48 49 49 50 50 50 51 52 52 53 54 55 55 55 55 55 54 51 48 44 42 40 40 39 39 39 39 38 38 38 38 39 37 37 39 38
65 63 61 60 59 58 58 57 56 56 56 55 54 54 54 52 49 47 45 47 51 54 54 52 54 56 59 62 62 64 64 62 60 56 53 54 53 52 51 51 51 50 49 48 47 47 47 47 48 50 50 50 50 50 51 51 52 52 53 54 55 56 55 55 55 55 53 51 48 45 42 41 40 40 41 41 41 41 40 40 39 40 40 40 42 42
66 66 62 60 60 59 57 57 57 57 57 57 56 56 54 52 51 48 46 48 51 54 54 52 53 56 58 59 60 61 61 59 58 56 55 55 53 53 53 53 52 52 51 49 48 48 48 48 50 52 52 52 51 51 52 52 52 53 53 54 55 56 56 56 56 54 52 50 48 46 45 43 41 40 41 42 42 42 42 41 41 41 42 42 44 45
70 67 62 61 63 61 59 59 59 59 59 60 59 58 56 54 53 51 49 49 51 52 51 50 52 55 57 56 56 59 59 57 56 56 56 56 56 56 56 55 54 53 52 50 51 50 49 50 52 53 53 53 52 52 52 53 53 53 54 55 56 56 56 56 55 54 51 49 48 47 46 45 43 42 43 43 43 44 43 43 42 42 43 45 45 47
71 67 64 65 66 64 63 63 62 61 63 64 62 59 59 58 55 54 51 51 52 49 45 47 50 53 56 53 53 57 57 55 55 57 58 58 59 59 58 57 56 55 53 52 52 51 50 51 52 54 54 54 53 53 53 53 53 54 55 56 56 56 56 56 55 53 51 49 49 48 48 47 47 47 46 47 47 46 47 46 45 45 45 46 47 48
71 67 66 67 67 65 64 64 64 64 66 66 61 59 60 60 58 56 53 52 52 46 42 46 48 51 54 52 52 56 54 53 54 57 60 60 60 60 60 59 58 56 55 53 53 52 51 51 53 54 55 55 54 54 54 54 54 55 56 56 55 55 56 56 55 52 51 50 49 49 50 50 50 50 49 49 49 48 48 48 48 48 48 48 49 49
71 69 69 68 68 67 66 66 65 66 67 64 59 59 61 61 59 57 54 52 51 46 44 46 48 51 55 54 53 52 50 50 53 56 60 61 60 60 60 59 58 57 56 54 53 52 51 52 53 54 55 56 55 54 54 54 55 56 56 55 55 55 56 56 54 52 51 50 50 51 51 52 52 51 51 50 50 49 48 48 49 50 50 50 50 50
74 72 71 71 70 69 69 68 66 66 67 62 59 61 62 61 58 55 54 53 51 49 47 49 51 52 53 51 48 47 47 48 51 54 59 62 61 61 60 60 58 57 56 54 53 52 52 53 54 55 56 56 55 55 54 55 55 55 55 55 55 56 56 56 54 52 51 51 51 52 52 52 51 50 50 49 48 48 46 45 46 48 51 49 46 49
75 72 72 73 72 72 72 70 68 69 69 64 63 63 62 60 57 54 53 52 50 50 50 53 55 51 48 46 45 46 48 49 50 53 56 60 63 62 62 61 59 57 56 54 53 53 54 54 55 55 56 56 55 55 55 55 55 55 55 55 55 56 56 55 53 52 51 51 51 51 51 50 49 49 48 47 46 44 43 40 40 44 44 41 41 48
75 72 73 75 74 74 73 71 72 73 70 67 66 65 62 59 57 55 54 53 52 52 54 55 55 50 45 44 45 47 49 49 49 51 53 58 62 64 63 61 60 58 57 56 55 54 55 55 55 55 55 55 55 55 55 55 55 55 55 55 56 56 56 55 53 52 51 51 50 50 49 48 48 49 48 47 45 42 40 37 35 38 36 34 38 47
70 71 73 75 75 74 73 72 73 73 69 68 67 64 60 60 60 58 56 55 55 55 56 56 53 49 46 44 45 47 49 50 50 50 51 55 60 63 64 63 61 59 57 56 55 55 56 56 56 55 55 55 55 55 55 55 54 54 54 55 56 56 55 54 52 51 50 49 48 48 47 48 49 49 46 44 42 39 37 34 31 33 35 36 38 41
64 67 70 71 72 72 73 74 74 71 69 68 65 61 61 62 63 61 59 58 57 56 56 56 52 49 48 47 46 47 49 50 50 51 51 53 57 62 64 64 62 60 58 57 56 56 56 56 56 55 54 54 54 54 54 54 54 54 54 55 56 56 54 52 50 49 48 47 47 46 47 48 48 46 42 39 35 33 31 29 27 29 33 33 34 35
63 67 70 70 71 71 71 73 73 71 69 67 64 63 64 64 62 60 58 56 55 55 56 56 53 50 49 49 48 48 50 51 51 52 53 53 56 60 63 63 62 59 58 57 56 56 56 55 55 54 53 53 53 53 53 53 53 53 54 55 56 55 52 50 48 47 45 45 45 46 47 48 47 43 38 33 28 25 24 23 22 25 28 28 29 30
64 68 70 69 71 72 72 72 70 68 68 68 67 66 65 64 61 59 58 55 55 55 56 56 53 50 49 50 50 50 51 51 52 53 54 55 57 60 62 63 61 58 57 57 56 55 55 54 54 53 53 53 53 53 52 52 52 52 54 55 55 53 50 48 46 44 44 44 44 45 46 47 45 40 33 26 20 17 17 16 15 18 23 23 25 27
64 67 68 70 73 75 73 70 66 65 67 67 65 63 63 61 60 60 59 58 57 57 57 56 54 52 52 51 51 51 51 53 55 54 55 57 59 62 63 62 60 57 57 56 55 54 54 54 53 53 53 52 53 52 52 51 51 52 54 55 53 51 48 46 43 42 42 43 44 44 44 44 42 36 27 20 15 11 10 11 12 15 19 20 23 28
64 65 67 69 71 71 69 67 65 66 67 64 62 62 62 61 60 60 59 57 56 56 56 56 55 55 53 51 50 50 52 56 56 55 56 57 59 62 62 61 59 56 56 55 54 53 53 53 53 52 52 52 52 51 51 50 51 52 54 53 51 48 46 43 42 41 42 42 43 43 42 42 39 31 22 16 10 7 11 14 17 21 25 24 25 28
63 64 66 66 66 66 66 66 67 68 67 64 64 66 64 62 61 60 58 56 55 55 54 56 56 55 52 51 49 48 50 54 56 56 57 57 58 61 61 60 58 56 56 54 53 53 52 52 52 51 51 51 51 50 50 50 50 52 53 51 48 46 43 41 40 41 41 41 42 41 40 39 34 26 18 14 8 11 14 16 19 23 27 25 21 25
62 63 64 64 64 64 66 67 68 68 67 65 66 66 64 62 62 60 58 57 57 55 54 56 57 54 50 47 47 49 52 55 55 54 55 56 58 59 60 58 57 55 55 53 52 52 51 51 51 51 51 51 50 50 49 49 50 51 50 48 46 43 41 40 40 41 41 40 40 40 38 36 30 22 16 13 11 16 17 18 20 22 25 22 17 24
60 60 61 63 65 65 66 67 67 67 65 65 66 65 63 62 62 61 60 60 58 56 54 55 55 54 50 47 49 55 57 56 53 51 52 56 57 57 58 56 56 55 54 52 50 50 51 51 50 51 50 50 50 49 48 48 49 49 48 46 44 41 40 40 40 40 40 40 39 38 36 32 27 20 16 13 14 19 20 22 24 23 24 20 20 28
58 59 60 63 65 65 64 64 64 63 63 64 65 64 63 63 62 61 61 60 57 53 53 56 56 54 52 48 49 54 56 54 53 50 52 55 56 56 56 55 54 54 53 50 49 50 51 50 50 50 50 50 50 49 48 48 48 47 46 44 42 40 40 40 40 40 41 39 38 37 34 29 24 20 17 15 17 21 23 26 27 24 20 19 24 33
55 56 57 59 62 63 63 64 63 62 63 63 62 62 63 62 61 60 60 58 55 53 55 59 59 54 51 49 50 54 55 55 56 53 52 54 55 55 55 53 53 52 52 50 49 50 51 50 50 50 50 50 49 48 47 47 47 45 44 42 40 40 40 40 40 40 41 39 37 35 32 27 22 20 18 17 19 22 26 30 29 22 17 20 28 35
51 51 51 54 56 58 60 62 62 63 62 62 62 62 62 61 59 59 57 54 54 57 59 61 60 57 53 52 55 57 57 57 57 56 55 55 55 54 53 53 53 53 52 51 50 51 51 50 50 50 50 50 48 47 46 46 45 44 43 41 40 40 41 40 40 41 41 39 36 34 31 25 21 21 20 19 22 26 31 34 31 21 17 24 32 35
49 47 48 50 52 54 56 58 59 61 62 61 61 61 59 59 58 56 54 54 57 60 61 61 61 59 56 56 58 60 58 56 56 56 56 55 53 52 52 52 53 53 52 50 50 51 51 50 50 50 50 49 47 46 45 44 44 43 42 41 41 41 41 40 40 41 41 39 36 32 30 25 21 23 23 21 24 29 35 37 33 25 22 28 36 36
49 47 46 47 49 50 52 55 56 58 61 61 60 59 59 59 59 57 56 57 60 61 61 61 60 58 57 57 59 60 58 56 54 54 54 54 53 52 52 53 54 52 51 50 50 51 50 50 50 50 49 48 46 45 44 44 43 42 42 41 41 41 41 40 40 41 40 39 36 31 30 25 21 25 26 24 24 29 36 39 35 30 28 33 39 39
50 48 47 48 49 49 49 51 53 54 57 58 58 59 59 59 59 59 58 59 59 59 59 60 60 58 55 53 54 57 57 56 55 53 53 54 54 54 54 55 54 52 50 50 50 50 50 49 50 49 49 47 46 45 44 43 43 42 41 41 41 41 41 40 40 40 39 38 36 31 29 26 22 26 28 26 26 30 36 40 38 33 32 37 42 42
52 51 50 50 51 51 49 49 50 51 53 54 55 56 57 57 58 58 58 59 60 60 59 60 61 60 57 53 52 53 54 55 55 55 54 54 54 55 56 56 54 52 50 50 50 50 50 49 49 49 48 47 46 45 44 43 42 42 41 42 42 42 41 40 40 40 39 38 37 32 28 26 23 26 30 28 27 30 35 40 39 36 35 40 45 45
52 52 52 51 51 51 49 47 48 49 50 51 53 53 53 55 56 56 58 60 62 64 63 60 59 58 57 55 53 52 52 54 55 55 54 54 54 55 56 55 53 52 51 51 51 50 50 49 49 48 47 47 46 45 44 43 43 42 42 42 43 42 42 42 41 40 40 39 38 34 30 26 24 26 32 32 30 30 34 38 40 38 37 41 47 48
47 48 51 50 50 50 48 46 48 48 48 49 51 51 51 52 53 55 57 59 62 65 64 61 58 55 53 52 53 53 53 53 54 54 54 54 55 55 55 55 54 53 52 51 50 50 50 49 49 48 48 47 46 45 45 44 44 43 43 43 43 43 44 43 43 42 42 41 39 37 32 28 25 26 33 35 33 32 34 38 40 40 40 42 46 49
40 44 47 48 49 49 48 46 47 48 48 49 50 50 51 52 52 52 54 56 58 60 60 59 57 53 51 51 52 53 54 54 54 54 54 54 55 55 55 54 54 54 53 51 50 50 50 49 49 49 48 47 46 46 46 46 45 45 45 45 45 46 46 45 45 45 44 43 42 40 36 31 27 26 32 37 37 35 36 39 41 42 42 43 45 48
35 37 39 41 43 45 46 45 45 47 51 53 54 53 54 56 55 52 51 53 55 56 57 58 58 55 53 52 52 54 54 54 54 55 55 55 55 55 55 55 54 54 52 51 50 50 50 49 50 49 49 48 48 47 47 47 47 47 47 48 48 48 48 48 48 48 46 46 45 43 41 35 30 27 30 37 41 39 38 40 42 44 44 44 45 47
33 34 35 36 37 40 45 48 48 49 53 56 57 58 60 60 58 55 52 53 55 56 57 58 58 57 54 52 51 53 54 54 54 54 55 55 55 55 55 55 55 54 53 52 51 50 50 50 50 50 50 50 49 49 49 49 49 49 50 50 51 51 51 51 51 50 49 48 47 46 45 41 35 30 29 35 43 43 41 41 44 46 46 47 47 48
35 35 36 37 39 41 44 46 48 51 53 54 57 59 61 61 60 58 56 54 54 55 56 55 55 56 55 53 52 52 53 53 53 54 54 55 55 56 55 55 56 55 55 54 52 51 51 51 51 52 52 52 51 51 51 51 52 52 52 52 53 53 54 54 53 53 52 51 50 49 48 46 41 34 30 33 41 47 46 44 45 47 49 50 50 50
37 37 37 39 41 42 43 44 46 48 48 48 50 52 55 56 57 55 53 51 52 52 53 53 54 54 55 55 54 52 52 53 54 54 54 55 56 56 56 56 57 56 56 55 53 52 52 52 53 53 54 54 53 53 53 54 54 54 54 55 56 56 56 56 55 55 54 53 53 52 51 50 47 41 34 32 37 46 51 50 49 50 51 52 53 54
42 41 42 42 42 42 43 45 46 45 45 45 45 46 47 49 50 49 47 47 49 50 51 52 53 53 54 54 54 54 53 53 54 54 54 55 56 56 57 57 57 57 56 55 54 54 53 54 54 55 55 55 55 55 56 56 56 57 57 58 58 58 58 58 57 57 56 56 56 55 54 53 52 48 41 35 34 42 51 55 54 53 54 55 56 57
46 46 46 46 46 46 46 46 46 46 46 47 46 46 46 47 47 45 44 45 47 48 50 51 52 53 53 53 53 54 54 54 54 54 54 56 57 57 57 57 57 57 56 55 55 55 55 56 56 57 57 57 57 58 58 58 59 59 60 60 60 60 60 59 60 59 59 59 58 58 57 57 55 53 48 41 36 37 46 56 59 59 58 58 59 60
51 50 49 49 50 50 49 49 49 49 49 49 48 48 48 47 46 44 45 48 49 49 50 51 52 53 53 53 53 53 53 53 54 54 55 56 57 57 57 58 58 58 57 57 57 57 58 58 59 59 60 59 59 60 60 60 61 61 61 61 61 61 61 61 62 61 61 61 61 61 60 60 59 57 53 47 42 38 40 50 60 64 63 62 63 63
52 52 51 52 52 53 52 52 53 54 53 52 51 50 49 48 48 48 50 52 53 53 52 52 53 53 53 53 53 53 53 53 53 54 55 56 57 57 58 59 59 59 59 59 59 60 60 61 61 62 62 62 61 62 62 62 62 63 62 63 63 63 63 63 63 63 63 63 63 63 63 63 62 60 56 51 46 42 40 43 54 64 67 67 67 67
53 53 52 53 53 54 55 55 55 56 55 54 53 53 52 52 52 53 53 54 54 54 53 52 52 52 52 52 53 53 53 53 53 54 55 56 57 58 59 60 60 60 60 61 61 62 62 63 63 63 63 63 63 63 64 64 64 64 64 64 64 65 65 65 65 65 65 65 66 66 66 66 64 61 57 52 48 45 43 42 46 57 67 71 71 71
54 54 54 54 54 54 55 55 56 56 55 54 54 54 54 53 53 53 53 53 53 53 52 52 52 52 52 53 53 53 53 53 54 55 56 56 57 58 59 60 60 61 61 62 62 63 63 64 64 64 64 64 65 65 66 66 66 66 66 66 66 66 66 66 66 66 67 68 69 69 68 67 63 59 56 52 49 47 46 44 44 49 60 70 74 75
54 55 56 56 55 55 55 55 56 55 54 54 54 53 53 52 52 52 52 52 53 52 52 52 52 52 52 53 53 53 53 54 54 55 56 57 58 59 60 60 61 62 62 63 63 63 64 65 65 65 66 66 66 67 67 67 67 67 68 67 68 67 67 68 68 69 70 71 71 70 68 65 61 58 54 52 50 48 47 47 46 46 51 61 72 77
53 54 54 55 55 55 55 55 55 54 53 53 53 53 52 52 52 52 52 52 52 52 52 52 52 52 52 52 52 53 53 54 55 56 57 58 59 60 61 61 62 63 64 64 65 65 65 66 66 67 67 67 68 68 69 69 69 69 69 69 69 69 70 70 71 72 72 71 70 67 64 61 59 57 54 52 51 49 48 49 49 49 48 53 62 73
51 51 52 52 52 52 53 54 54 53 53 52 52 52 52 52 52 52 52 52 52 52 52 53 53 53 53 53 53 53 54 55 56 56 58 59 59 61 61 62 62 63 64 65 65 65 66 67 67 67 68 68 69 69 70 70 70 70 70 70 71 71 72 73 73 73 72 69 67 64 62 60 58 56 55 54 52 52 51 51 51 52 52 51 54 62
49 49 49 50 50 50 50 51 51 51 51 51 51 52 52 52 52 53 53 53 53 53 53 53 54 54 54 54 55 55 55 56 57 58 59 60 60 61 62 62 63 63 64 65 65 66 67 67 67 68 69 69 70 71 71 71 71 71 71 72 72 73 74 73 72 71 69 67 65 63 62 60 59 57 56 56 56 55 55 54 54 54 55 55 54 56
46 47 48 48 48 48 49 49 49 49 50 50 50 51 51 51 51 52 53 54 54 54 54 54 54 55 55 55 56 56 57 57 58 59 60 60 61 62 62 63 63 64 65 65 66 67 67 68 69 69 70 71 71 71 72 72 72 72 73 74 74 73 72 70 69 67 66 65 65 64 63 62 61 60 59 59 59 59 58 58 57 56 56 57 58 57
46 47 47 47 47 48 49 49 49 49 50 50 50 51 50 50 51 52 53 54 54 55 55 55 55 55 56 57 57 57 58 58 59 60 61 61 62 62 63 64 64 65 65 66 67 67 68 69 70 71 71 72 72 72 73 73 74 74 74 74 72 71 69 68 66 66 65 65 65 65 65 65 64 64 63 62 61 61 61 60 60 59 58 58 59 59
Wind_Direction
228 229 229 230 230 231 231 231 231 231 232 234 236 237 236 236 237 235 232 233 235 235 236 238 241 243 241 239 241 244 246 246 248 249 247 244 244 245 248 250 251 252 253 254 254 254 254 255 257 260 263 266 269 271 274 276 278 279 282 285 288 291 293 295 296 298 298 298 298 296 294 290 285 278 273 267 258 251 248 246 248 250 247 241 237 234
228 228 229 230 230 230 231 231 232 232 233 234 235 236 235 235 237 236 233 233 235 235 235 237 240 242 241 239 241 243 245 246 248 249 247 246 246 246 247 249 248 249 251 252 253 253 253 256 258 261 263 266 268 271 274 276 277 280 283 287 289 291 294 296 297 298 299 300 299 297 294 289 284 279 273 267 263 258 255 252 250 249 244 236 232 232
229 229 230 231 231 231 232 232 233 233 233 234 234 235 235 236 237 237 234 233 235 236 236 236 238 241 241 239 240 242 244 246 247 247 246 245 246 246 247 248 248 251 253 252 252 253 255 258 259 260 263 265 268 270 272 274 277 280 284 286 289 291 294 296 297 298 300 301 299 296 292 287 282 277 272 268 264 260 258 257 254 250 244 235 229 230
230 229 230 231 231 232 233 234 234 233 233 234 235 235 235 236 238 238 235 234 235 237 237 236 238 241 241 240 240 241 243 244 245 247 246 245 244 244 245 247 248 250 251 252 253 255 255 256 257 260 263 265 267 269 271 273 277 281 284 286 289 292 295 296 298 300 301 301 298 294 290 285 281 276 271 268 265 262 259 258 255 251 245 235 226 225
229 229 230 231 232 232 233 234 234 233 234 235 236 236 235 234 237 237 233 234 235 237 238 237 238 241 241 240 240 241 243 244 244 245 246 244 242 241 241 245 248 248 250 252 250 249 251 253 256 260 263 265 267 269 272 274 278 281 284 287 290 293 295 297 299 300 301 300 296 292 288 283 279 275 270 267 266 263 260 258 255 251 244 233 224 223
229 230 230 231 233 233 235 235 234 234 235 236 237 237 236 234 235 234 233 235 237 238 240 239 239 241 241 240 240 241 242 243 243 243 244 244 243 241 241 244 245 246 248 247 244 245 250 253 257 260 263 266 268 271 273 276 279 282 285 288 290 293 295 298 299 300 300 299 295 290 286 282 278 274 269 267 265 263 261 258 256 251 244 231 222 223
230 231 231 232 233 234 235 236 236 236 236 237 238 238 238 236 235 234 233 235 237 239 240 239 239 241 241 240 241 241 241 241 242 241 242 244 244 243 243 243 243 243 244 244 245 249 252 254 258 261 264 267 269 272 275 277 280 283 286 289 291 294 296 298 299 301 300 298 294 289 284 280 277 273 270 266 264 262 260 259 256 252 246 232 222 223
231 231 231 232 233 234 236 237 237 238 238 239 239 240 241 239 237 235 232 234 237 239 238 238 239 241 241 241 241 241 241 240 240 240 240 243 244 244 245 245 244 244 244 246 248 250 252 256 260 262 265 267 270 273 275 278 280 284 287 290 293 295 297 299 300 301 300 297 293 289 284 280 276 272 269 267 264 263 261 260 257 252 248 238 226 224
231 231 231 232 234 235 236 237 238 239 239 239 240 241 242 242 241 237 234 235 238 238 238 238 240 241 242 242 242 243 243 241 239 239 240 241 243 244 245 245 246 246 247 247 248 250 254 258 260 263 266 268 270 273 275 277 281 284 287 290 292 295 297 300 301 301 299 295 292 289 286 282 277 272 269 267 265 264 263 261 259 252 247 242 232 226
231 231 230 232 234 234 235 236 237 239 239 240 240 241 242 242 242 240 238 239 241 240 240 240 241 244 244 244 244 245 245 243 238 237 239 241 242 243 244 245 246 248 249 249 250 252 255 257 260 263 266 268 271 273 275 278 281 285 288 290 292 295 298 301 301 300 297 293 291 289 287 284 280 276 271 269 266 265 264 261 259 255 248 244 237 228
231 231 231 232 233 233 234 235 236 237 238 239 239 241 242 243 243 242 240 241 243 242 242 243 242 245 246 245 245 244 244 243 239 236 237 240 241 242 243 245 246 249 251 252 253 253 255 257 261 264 266 269 271 273 275 279 282 285 287 290 293 296 299 301 300 298 295 292 290 289 287 285 282 279 276 273 269 266 263 261 258 255 250 245 240 233
233 233 233 234 235 235 236 236 237 237 238 239 240 240 242 243 243 244 243 244 246 244 243 246 244 245 247 244 243 245 244 244 241 236 236 239 241 242 243 245 247 249 251 252 253 254 255 258 261 264 266 269 271 273 276 280 282 285 288 291 294 297 300 300 299 297 294 292 291 289 288 286 285 284 282 278 274 269 264 260 257 253 250 246 242 237
233 234 235 236 237 238 238 239 239 240 241 242 242 242 244 245 245 247 247 247 248 247 245 248 247 246 246 244 244 247 247 245 243 239 237 238 240 243 244 245 246 248 250 252 253 255 256 258 260 263 266 268 271 274 277 280 282 285 289 292 295 298 299 299 297 295 293 292 290 290 289 289 289 288 286 282 278 272 266 260 255 252 249 244 241 239
234 234 236 237 238 238 239 240 241 243 244 244 244 245 245 247 248 249 250 249 250 249 246 247 247 245 246 246 246 247 246 245 245 243 239 238 240 243 244 246 247 248 250 252 253 255 256 257 260 262 265 268 272 275 278 280 283 286 289 292 295 298 299 298 296 295 293 292 291 291 292 292 292 291 289 286 281 276 269 262 256 252 249 244 241 241
234 234 237 238 238 239 240 240 241 242 243 242 243 244 244 246 247 247 248 247 247 247 245 245 246 246 246 246 245 246 246 245 246 245 242 240 240 242 244 245 246 248 250 252 253 254 256 257 259 262 265 269 272 275 278 280 283 287 290 293 296 298 299 297 296 295 294 293 293 294 295 295 296 295 294 291 286 280 274 266 256 249 247 246 246 243
235 235 235 237 237 238 239 239 240 240 241 241 241 242 243 245 245 244 244 243 243 242 243 244 247 247 247 245 244 245 245 245 245 245 243 241 240 242 244 245 246 247 249 251 253 254 255 257 260 262 265 269 272 275 278 281 284 288 290 294 297 298 298 297 295 295 294 295 295 296 298 299 299 299 297 294 289 284 277 268 255 245 239 238 243 243
235 234 234 235 235 235 236 237 238 240 240 241 241 242 243 243 242 240 240 240 239 239 241 245 247 248 247 243 241 242 243 244 245 245 244 242 241 242 244 245 245 246 248 250 251 252 254 257 260 263 266 269 272 275 278 282 285 288 292 295 297 298 297 296 295 295 295 296 297 299 301 302 301 299 297 294 290 284 277 267 254 240 229 225 230 235
232 233 233 233 234 233 233 234 234 236 237 238 239 240 240 240 240 239 239 240 239 240 242 245 247 247 246 244 241 241 243 243 243 244 244 242 241 242 244 244 244 245 247 249 250 252 254 257 260 263 266 269 272 275 279 282 286 289 293 295 297 297 296 295 295 296 297 298 300 302 303 303 302 301 299 295 289 283 274 264 252 235 226 223 221 223
231 232 232 231 232 232 232 233 233 233 234 234 235 235 236 237 239 240 241 242 243 243 244 245 244 244 245 244 241 241 243 244 243 243 242 240 240 241 243 244 243 244 246 248 249 251 254 257 260 263 266 269 272 276 279 283 286 290 293 295 296 296 295 295 295 296 298 301 303 304 305 304 304 303 302 298 289 279 268 257 245 227 219 224 223 223
232 233 232 230 230 230 230 231 232 232 233 233 233 233 235 236 238 239 238 238 239 240 242 244 243 242 241 240 238 239 241 242 243 243 242 240 238 239 241 242 242 244 246 247 249 251 254 257 260 263 266 269 272 276 280 283 287 290 293 295 295 295 294 295 296 298 300 303 304 305 306 306 306 307 305 300 288 275 260 245 233 217 212 222 228 229
231 232 231 229 229 229 229 230 230 231 232 233 233 234 236 238 238 238 238 237 238 239 240 242 242 240 238 237 237 239 240 242 243 244 243 241 239 239 241 242 242 244 245 246 248 250 253 256 260 263 266 269 273 276 280 284 287 290 293 294 294 293 294 295 296 299 302 304 305 306 308 307 308 309 306 301 291 268 236 208 205 210 208 217 230 235
231 230 230 229 228 229 229 229 228 229 231 231 232 232 234 235 236 238 239 239 240 241 242 243 242 240 238 237 237 238 240 243 246 245 244 243 241 240 241 242 243 245 245 246 248 250 253 257 260 264 266 270 274 277 281 284 287 291 293 293 293 292 293 295 297 301 302 304 305 307 308 307 308 309 305 303 291 232 195 183 189 199 199 204 224 234
231 229 229 228 228 227 227 226 226 227 228 228 229 230 231 232 233 235 237 238 239 241 242 242 241 239 237 237 237 237 238 242 244 245 244 244 242 241 241 242 243 245 246 246 248 250 254 257 261 264 267 270 274 277 281 285 288 291 292 292 292 292 294 295 298 301 302 304 306 307 309 308 307 307 303 296 259 195 184 182 188 198 197 199 218 226
230 228 227 226 226 224 223 224 225 226 226 226 228 230 230 231 232 233 235 235 236 237 239 240 239 238 235 233 233 234 236 239 243 245 244 243 243 241 240 242 243 245 246 246 247 250 254 258 261 264 267 271 274 277 281 286 289 291 291 290 290 291 294 296 298 301 302 304 306 307 309 307 305 302 295 282 230 191 182 181 186 193 192 191 208 213
229 227 225 225 224 223 222 222 224 225 225 225 226 227 228 230 231 232 233 235 235 235 236 237 236 235 232 230 231 236 239 240 242 244 243 242 242 242 241 242 243 244 244 245 247 250 254 257 261 264 268 271 274 278 282 286 289 290 289 289 290 291 293 295 298 300 302 304 306 307 308 306 301 295 285 267 223 195 183 180 183 182 179 186 201 202
228 226 224 223 223 222 221 222 224 225 226 226 226 226 226 228 229 231 234 235 234 233 234 235 234 231 229 229 233 238 240 238 238 238 239 239 240 241 241 242 243 243 243 244 247 250 253 257 260 264 267 271 274 278 282 286 288 288 287 288 289 290 292 295 298 299 301 304 306 307 308 304 294 286 276 255 219 198 186 180 182 178 177 193 201 196
228 226 224 223 223 221 219 220 221 222 223 225 226 226 227 228 230 231 233 234 233 230 229 231 234 232 228 227 230 235 238 237 235 235 236 237 238 240 241 242 243 242 241 243 246 250 253 257 260 264 267 271 275 279 282 285 286 286 286 287 288 290 292 295 298 299 300 303 306 306 307 302 286 276 269 248 217 198 189 185 185 182 187 201 198 194
226 226 224 223 223 221 220 220 220 220 221 221 223 224 226 227 229 230 231 231 232 230 226 228 233 233 228 226 229 233 236 237 236 235 235 238 239 241 242 243 242 241 241 243 246 250 253 256 260 264 267 271 275 279 283 285 285 285 286 286 287 289 292 295 297 298 300 303 305 305 305 299 278 266 264 246 221 203 194 190 189 189 200 203 196 195
221 221 221 221 220 219 218 220 221 221 220 220 221 222 223 224 225 227 228 228 229 229 227 228 232 233 231 229 231 234 236 237 238 236 236 238 240 241 242 241 240 239 240 242 245 249 253 257 260 264 268 271 276 279 282 283 283 284 285 286 288 290 293 295 296 297 300 302 304 304 304 297 271 257 259 248 228 211 199 194 193 195 203 202 198 199
219 218 219 220 219 217 215 217 219 220 219 219 220 220 220 221 220 221 221 222 224 227 227 228 231 233 233 233 234 236 237 236 236 236 236 237 239 241 241 239 239 239 240 242 246 250 254 257 261 265 268 272 276 279 281 282 282 284 285 287 288 290 292 294 295 297 300 301 303 302 302 296 269 252 256 250 232 217 205 200 201 204 205 201 200 204
218 218 218 219 219 216 213 214 217 218 217 218 219 218 218 218 218 218 218 218 221 225 229 231 233 232 233 234 235 236 236 234 234 235 236 237 239 240 240 239 239 240 241 243 246 250 255 258 262 265 269 273 276 278 280 281 283 285 286 287 288 290 291 292 293 296 299 300 302 302 301 297 271 248 251 251 236 221 211 206 208 210 208 204 204 208
217 216 217 219 221 218 213 212 215 217 215 214 216 217 217 218 217 217 217 216 217 220 225 230 234 233 232 233 233 234 235 234 234 235 237 238 240 240 240 240 240 241 242 244 248 252 256 259 263 266 270 273 276 278 280 281 283 285 286 287 288 289 290 291 292 295 298 299 302 302 300 297 276 247 243 248 240 225 216 211 210 212 209 206 208 211
214 214 215 217 219 219 215 211 214 217 216 214 215 216 216 218 218 217 217 216 216 218 222 227 232 234 233 232 231 231 233 234 234 235 237 239 240 241 240 241 241 241 242 245 249 253 257 260 263 267 270 273 276 278 279 281 283 285 286 286 287 288 288 289 291 294 297 299 301 303 300 296 281 251 237 242 242 230 220 216 213 212 211 209 210 213
208 209 210 211 212 213 212 210 211 214 215 214 214 213 214 217 218 217 216 216 217 220 223 226 229 232 232 231 229 230 232 234 235 236 238 239 240 241 241 241 241 242 243 246 250 254 258 261 264 267 271 274 276 278 279 281 282 283 285 285 286 286 287 289 291 293 296 298 299 302 300 296 287 260 237 236 242 234 222 217 214 213 213 211 212 215
197 199 202 203 205 205 205 205 207 207 208 208 207 207 210 214 218 220 219 218 218 222 225 226 227 230 230 229 229 231 233 234 235 236 237 238 239 240 240 241 241 243 245 248 251 255 258 261 265 268 271 274 276 277 279 280 280 282 283 284 284 285 286 288 290 292 294 296 298 300 300 296 291 271 243 233 237 238 227 219 215 213 213 213 213 216
183 188 191 195 199 199 195 194 197 200 203 204 202 202 205 209 214 219 221 220 219 221 224 225 224 224 227 229 230 231 233 234 235 236 237 238 239 239 240 241 243 245 247 250 252 255 258 262 265 268 271 273 275 277 278 279 280 281 282 282 283 285 286 287 289 290 292 295 297 298 299 296 292 281 256 235 232 236 233 223 217 216 215 214 214 217
177 182 185 189 193 192 189 189 193 199 204 205 203 202 203 206 211 215 219 222 222 222 224 225 223 223 225 228 230 231 233 234 236 237 237 238 239 240 240 242 244 246 248 250 252 255 258 262 265 267 270 272 274 276 277 279 280 280 281 282 283 284 285 286 288 290 291 293 295 296 297 297 293 285 269 245 232 231 233 228 221 218 218 217 217 219
179 182 185 187 190 190 191 194 199 203 206 208 207 207 208 210 213 216 219 221 221 221 223 225 224 224 225 227 229 231 233 234 236 237 238 238 239 240 241 243 245 247 249 251 252 255 258 261 264 266 268 270 272 274 276 278 279 280 281 282 282 283 284 286 288 290 291 292 294 295 295 296 294 288 278 258 239 231 230 230 226 221 220 220 220 221
183 185 187 189 192 194 195 200 205 208 210 211 212 212 212 213 215 218 219 220 221 221 223 225 226 226 227 228 230 232 233 234 236 237 238 239 240 241 242 244 246 248 250 252 253 255 257 260 262 264 267 269 271 273 275 277 278 280 281 281 282 283 284 286 288 289 290 291 292 293 294 295 295 291 283 269 250 236 230 229 228 225 223 222 222 223
186 189 191 193 196 200 202 205 207 208 210 212 212 212 213 214 215 217 219 221 222 223 224 226 227 227 228 230 231 232 234 235 236 237 238 240 241 243 244 245 247 248 250 252 254 256 258 259 261 264 266 268 270 272 274 276 277 279 280 281 283 284 285 287 288 288 289 290 291 292 293 294 294 293 288 278 262 245 234 229 228 227 226 226 225 225
190 193 195 195 198 202 206 208 209 210 211 212 213 213 214 215 217 218 220 224 226 226 226 228 228 229 229 230 232 233 234 235 237 238 239 240 241 243 245 246 248 249 251 253 255 257 259 260 262 264 265 267 270 272 274 275 277 278 280 282 283 284 285 286 287 288 288 289 290 292 293 293 293 293 290 283 272 256 241 232 229 228 227 228 228 228
193 195 197 197 200 203 206 209 211 213 215 215 215 216 218 218 219 220 223 227 228 228 228 228 229 230 230 231 232 233 234 236 237 238 239 241 242 243 245 246 248 250 251 254 256 258 259 261 262 264 266 268 270 272 274 275 277 279 281 282 283 284 285 285 286 287 288 289 290 290 291 292 292 292 291 286 277 266 252 239 232 229 228 228 228 230
196 198 200 200 202 204 206 208 211 214 215 216 217 218 220 220 221 221 224 227 227 227 227 228 229 230 231 232 234 235 235 236 238 239 240 242 242 244 245 247 248 250 252 254 256 258 259 261 263 265 267 269 271 272 274 276 277 279 280 282 283 284 284 285 286 286 287 288 289 290 290 291 291 291 289 286 279 270 261 249 238 232 229 228 228 229
199 201 203 204 206 207 208 210 213 215 215 216 218 219 220 220 221 222 224 226 227 227 227 228 230 231 232 233 234 236 237 237 238 240 241 243 244 245 246 248 249 251 253 255 257 259 260 262 264 266 268 270 272 273 275 276 278 279 280 282 283 283 284 285 285 286 287 287 288 289 290 290 290 289 287 284 279 272 265 258 248 238 233 230 229 229
202 204 207 209 210 211 213 214 217 218 218 218 220 221 221 222 223 224 225 227 229 230 230 230 232 233 233 234 235 237 238 239 240 242 243 245 246 247 248 249 251 252 254 256 257 260 262 263 265 267 269 271 272 274 276 277 278 280 281 282 283 283 284 284 285 285 286 287 288 289 289 289 288 287 285 282 278 274 267 262 255 246 238 234 232 231
208 209 211 213 214 215 217 218 220 221 221 221 222 223 223 224 225 226 228 229 231 232 232 232 233 234 235 236 237 238 239 241 242 244 246 247 248 249 250 252 253 254 255 256 258 260 262 264 266 268 270 272 273 275 276 278 279 280 281 282 283 283 284 284 285 285 286 287 287 287 287 287 286 285 283 281 278 274 270 266 262 255 247 239 235 233
214 215 216 217 218 219 220 222 223 223 224 224 225 225 226 226 227 228 230 231 232 233 234 234 235 236 237 237 238 239 241 242 243 245 246 248 249 251 252 253 254 256 257 258 260 261 263 265 267 269 271 273 274 276 277 278 280 281 282 283 283 284 284 285 285 286 286 286 286 286 285 285 284 283 282 281 278 275 272 269 267 263 257 248 241 236
221 221 221 222 222 222 223 225 226 226 226 227 227 228 228 228 229 230 231 232 233 234 235 236 236 237 237 238 239 240 241 243 244 245 247 248 250 251 253 254 256 258 260 261 263 264 266 268 269 271 273 274 275 277 278 279 281 282 282 283 283 284 285 285 285 286 286 285 285 284 284 283 283 283 282 280 279 277 274 272 270 268 265 259 251 243
225 225 226 226 225 225 226 227 228 229 229 230 230 230 231 231 231 232 232 233 234 235 236 237 237 238 239 239 240 241 242 244 245 246 247 249 251 252 254 256 258 259 261 263 265 267 268 270 271 272 273 275 276 278 279 280 281 282 282 283 284 284 285 285 285 285 285 284 284 284 284 283 283 282 282 281 280 278 277 274 272 269 267 265 260 253
226 227 227 228 228 228 228 229 229 230 231 232 232 232 232 232 233 234 234 235 236 237 238 238 239 240 241 241 242 243 244 245 246 248 249 251 252 254 256 257 259 261 263 264 266 268 269 271 272 273 274 276 277 278 279 280 281 281 282 283 283 283 283 283 283 283 283 283 283 283 284 284 283 283 282 281 280 279 277 276 274 271 268 266 264 261
225 226 227 228 229 229 230 230 230 231 231 232 233 233 233 234 234 235 236 237 237 238 239 240 241 242 243 244 244 245 246 247 248 249 251 252 254 256 257 259 260 262 264 265 267 268 270 272 273 274 276 277 278 278 279 280 281 281 282 282 282 282 281 281 281 281 282 282 282 283 283 283 283 283 282 281 280 278 277 276 274 272 270 267 265 263
Height
10627 10632 10637 10640 10643 10644 10647 10649 10650 10652 10655 10660 10663 10665 10670 10672 10673 10678 10686 10689 10690 10691 10693 10692 10686 10691 10707 10712 10712 10711 10711 10716 10720 10727 10738 10740 10740 10742 10741 10740 10740 10740 10741 10743 10746 10749 10749 10746 10745 10745 10745 10745 10745 10745 10745 10746 10746 10745 10744 10744 10742 10741 10739 10737 10735 10734 10733 10732 10732 10731 10731 10731 10731 10731 10730 10731 10731 10731 10732 10732 10732 10732 10732 10733 10734 10735
10622 10629 10633 10634 10637 10638 10641 10643 10644 10647 10654 10657 10657 10660 10664 10666 10668 10673 10682 10685 10683 10684 10686 10686 10683 10686 10698 10708 10709 10706 10705 10711 10716 10723 10730 10733 10734 10736 10737 10736 10735 10737 10737 10739 10741 10742 10743 10742 10742 10741 10741 10741 10740 10741 10741 10741 10740 10740 10739 10738 10737 10735 10734 10732 10730 10729 10728 10727 10726 10725 10725 10725 10724 10724 10724 10724 10725 10725 10726 10726 10726 10727 10727 10728 10729 10730
10619 10625 10627 10628 10630 10633 10636 10637 10639 10646 10651 10651 10651 10655 10659 10662 10663 10668 10679 10681 10677 10678 10678 10681 10681 10680 10692 10703 10703 10699 10701 10707 10712 10717 10723 10727 10728 10730 10733 10732 10731 10732 10733 10736 10737 10737 10738 10738 10737 10737 10736 10736 10736 10737 10737 10736 10736 10735 10734 10733 10731 10730 10729 10727 10725 10724 10723 10722 10720 10719 10718 10718 10718 10718 10718 10718 10718 10719 10720 10720 10721 10721 10722 10724 10725 10726
10615 10619 10619 10621 10624 10627 10630 10631 10636 10642 10645 10644 10646 10651 10655 10658 10658 10666 10676 10674 10672 10672 10670 10676 10678 10675 10687 10697 10695 10695 10698 10703 10708 10712 10718 10722 10722 10725 10729 10728 10727 10728 10728 10732 10733 10732 10732 10732 10732 10732 10731 10732 10732 10732 10732 10732 10732 10730 10729 10727 10726 10726 10724 10722 10721 10720 10719 10717 10715 10713 10712 10712 10712 10712 10712 10712 10712 10713 10714 10714 10715 10716 10717 10719 10720 10721
10608 10610 10611 10615 10619 10622 10624 10627 10633 10637 10638 10640 10643 10646 10650 10653 10654 10663 10670 10666 10666 10665 10663 10673 10675 10673 10683 10688 10689 10691 10693 10698 10704 10708 10712 10714 10716 10721 10725 10725 10725 10724 10723 10726 10728 10727 10727 10727 10727 10727 10727 10727 10727 10727 10727 10727 10727 10725 10724 10723 10722 10721 10719 10718 10716 10715 10713 10711 10709 10707 10706 10706 10706 10707 10706 10706 10707 10708 10708 10709 10710 10710 10712 10713 10715 10716
10600 10602 10607 10612 10614 10618 10620 10623 10628 10631 10633 10635 10638 10641 10644 10646 10650 10658 10663 10662 10662 10659 10661 10672 10672 10670 10677 10679 10683 10687 10689 10695 10700 10704 10707 10707 10710 10715 10719 10721 10722 10721 10719 10719 10721 10721 10722 10722 10722 10722 10722 10722 10722 10722 10722 10722 10722 10720 10719 10718 10717 10716 10715 10713 10711 10710 10708 10706 10704 10702 10701 10700 10701 10702 10702 10701 10701 10702 10703 10704 10704 10705 10706 10708 10709 10710
10594 10598 10604 10607 10610 10613 10615 10619 10623 10626 10628 10630 10633 10636 10637 10642 10648 10654 10659 10658 10657 10655 10659 10666 10667 10668 10671 10672 10677 10681 10684 10690 10694 10699 10702 10701 10703 10708 10712 10714 10715 10716 10715 10715 10716 10716 10717 10717 10717 10716 10716 10717 10717 10717 10717 10717 10716 10715 10714 10713 10712 10711 10709 10708 10706 10705 10703 10701 10699 10698 10696 10695 10695 10696 10697 10697 10697 10697 10698 10698 10699 10700 10700 10702 10703 10704
10590 10593 10598 10603 10605 10608 10611 10615 10618 10620 10623 10625 10629 10630 10633 10639 10644 10649 10653 10652 10651 10650 10654 10660 10662 10663 10664 10666 10672 10674 10678 10684 10689 10695 10698 10697 10698 10702 10704 10706 10707 10709 10710 10711 10712 10712 10712 10713 10712 10710 10711 10712 10712 10713 10712 10711 10711 10710 10709 10708 10707 10705 10704 10702 10701 10699 10697 10695 10693 10692 10691 10690 10690 10691 10691 10691 10692 10692 10692 10693 10694 10694 10695 10696 10697 10699
10583 10585 10594 10598 10599 10603 10608 10610 10612 10614 10617 10620 10623 10625 10629 10635 10637 10642 10647 10646 10645 10645 10651 10657 10658 10658 10658 10661 10666 10669 10672 10679 10686 10690 10692 10693 10695 10696 10697 10698 10701 10702 10704 10707 10707 10708 10709 10709 10707 10705 10705 10707 10707 10708 10707 10707 10706 10706 10705 10704 10702 10700 10699 10697 10696 10694 10692 10689 10687 10686 10685 10685 10685 10686 10686 10686 10686 10686 10686 10687 10688 10689 10689 10690 10691 10693
10574 10580 10590 10591 10592 10598 10601 10603 10606 10609 10612 10613 10616 10621 10624 10628 10631 10636 10641 10641 10640 10643 10650 10655 10655 10653 10653 10658 10662 10664 10667 10674 10681 10685 10687 10688 10690 10690 10691 10692 10695 10696 10699 10701 10702 10704 10705 10704 10702 10700 10700 10701 10702 10703 10702 10702 10702 10702 10701 10699 10697 10696 10694 10692 10690 10688 10686 10684 10682 10680 10679 10679 10679 10680 10680 10680 10680 10680 10680 10680 10681 10682 10683 10684 10685 10687
10568 10576 10582 10583 10585 10591 10593 10595 10600 10604 10604 10605 10611 10617 10618 10622 10626 10630 10635 10636 10636 10643 10650 10650 10651 10649 10649 10655 10658 10657 10662 10669 10675 10679 10681 10682 10683 10684 10686 10687 10689 10691 10694 10696 10697 10699 10700 10699 10697 10695 10695 10696 10696 10697 10697 10697 10697 10697 10696 10694 10693 10691 10689 10687 10685 10682 10680 10678 10676 10674 10673 10673 10672 10672 10673 10672 10673 10673 10674 10674 10675 10676 10676 10678 10679 10681
10565 10572 10576 10579 10581 10584 10588 10591 10595 10597 10596 10600 10609 10613 10612 10617 10621 10625 10630 10633 10634 10643 10647 10645 10646 10645 10644 10650 10652 10652 10660 10665 10668 10672 10674 10675 10677 10678 10681 10683 10685 10687 10689 10691 10692 10693 10694 10694 10692 10691 10690 10690 10691 10692 10692 10693 10693 10691 10690 10689 10688 10687 10684 10682 10679 10676 10674 10672 10670 10669 10667 10666 10665 10665 10665 10664 10664 10665 10666 10666 10668 10668 10669 10671 10672 10675
10561 10566 10569 10573 10575 10579 10583 10585 10589 10591 10591 10599 10607 10607 10608 10612 10617 10622 10627 10630 10633 10639 10642 10640 10641 10640 10638 10645 10649 10651 10658 10660 10662 10666 10668 10670 10671 10673 10676 10678 10681 10683 10684 10686 10687 10688 10689 10688 10687 10686 10685 10685 10686 10687 10688 10688 10687 10686 10685 10685 10683 10681 10679 10676 10673 10671 10669 10667 10665 10663 10661 10660 10658 10657 10656 10655 10654 10654 10656 10657 10659 10661 10661 10663 10666 10669
10553 10558 10562 10566 10569 10574 10577 10580 10585 10587 10588 10597 10603 10602 10604 10608 10613 10620 10623 10626 10630 10633 10635 10634 10632 10632 10634 10642 10648 10650 10654 10655 10657 10660 10662 10664 10665 10667 10670 10672 10675 10678 10680 10681 10682 10683 10683 10683 10682 10681 10680 10680 10681 10682 10683 10683 10682 10681 10681 10680 10678 10676 10673 10671 10668 10666 10664 10662 10660 10658 10656 10654 10652 10650 10648 10646 10644 10644 10646 10648 10651 10652 10653 10657 10662 10664
10545 10553 10557 10560 10563 10567 10570 10575 10579 10579 10582 10591 10594 10595 10599 10603 10610 10616 10617 10621 10625 10626 10627 10625 10624 10628 10634 10640 10644 10645 10647 10649 10650 10653 10656 10658 10659 10661 10663 10666 10670 10673 10675 10676 10677 10677 10677 10677 10677 10676 10676 10676 10677 10677 10678 10678 10677 10677 10676 10675 10673 10670 10668 10665 10663 10661 10658 10656 10654 10652 10650 10648 10645 10643 10640 10638 10636 10636 10637 10639 10642 10643 10646 10654 10660 10661
10539 10546 10548 10549 10554 10558 10562 10568 10569 10569 10576 10584 10586 10589 10595 10601 10605 10608 10609 10614 10618 10618 10618 10617 10620 10627 10633 10635 10637 10639 10640 10642 10644 10647 10649 10651 10653 10654 10657 10660 10664 10667 10669 10670 10671 10671 10671 10671 10671 10672 10672 10672 10672 10673 10673 10673 10672 10671 10671 10669 10667 10665 10662 10660 10658 10656 10653 10651 10649 10647 10645 10642 10639 10636 10634 10631 10629 10628 10629 10631 10634 10636 10641 10648 10653 10656
10532 10536 10537 10540 10544 10549 10555 10558 10560 10564 10572 10576 10579 10586 10594 10596 10596 10599 10602 10606 10609 10611 10611 10613 10619 10625 10629 10630 10631 10633 10635 10637 10639 10642 10643 10645 10647 10648 10651 10654 10658 10661 10664 10665 10665 10665 10665 10666 10666 10668 10668 10668 10668 10668 10668 10668 10667 10666 10665 10664 10662 10659 10657 10655 10653 10651 10649 10647 10644 10642 10639 10636 10633 10630 10628 10626 10624 10622 10622 10624 10627 10630 10634 10637 10641 10647
10523 10525 10527 10532 10536 10541 10545 10547 10551 10558 10564 10569 10576 10584 10586 10584 10586 10591 10596 10600 10603 10606 10608 10612 10616 10621 10622 10623 10627 10629 10630 10632 10634 10636 10637 10639 10641 10642 10644 10647 10651 10656 10658 10659 10660 10660 10660 10661 10662 10663 10664 10664 10664 10663 10663 10663 10662 10661 10660 10658 10656 10654 10652 10650 10648 10646 10644 10642 10639 10637 10634 10630 10627 10624 10622 10621 10618 10617 10617 10619 10622 10625 10629 10632 10635 10640
10515 10514 10518 10524 10528 10532 10536 10538 10544 10551 10557 10564 10571 10574 10573 10575 10582 10587 10593 10598 10601 10603 10606 10607 10611 10615 10616 10617 10622 10624 10624 10626 10628 10629 10631 10633 10635 10636 10638 10641 10646 10650 10653 10654 10654 10655 10656 10656 10657 10658 10659 10659 10659 10659 10659 10659 10658 10657 10655 10653 10651 10649 10647 10646 10644 10642 10640 10637 10634 10632 10628 10625 10622 10619 10617 10615 10614 10613 10613 10615 10619 10622 10628 10633 10636 10639
10506 10506 10510 10517 10520 10522 10526 10530 10540 10549 10554 10558 10562 10564 10567 10573 10579 10583 10588 10593 10594 10596 10599 10600 10605 10609 10610 10611 10614 10617 10619 10621 10621 10623 10625 10627 10629 10630 10632 10635 10641 10645 10648 10649 10650 10651 10652 10652 10653 10653 10654 10654 10654 10655 10655 10654 10653 10652 10650 10648 10646 10644 10643 10641 10640 10638 10635 10633 10630 10627 10624 10620 10617 10615 10613 10611 10610 10609 10611 10614 10619 10624 10629 10634 10636 10638
10497 10498 10502 10508 10509 10513 10520 10529 10539 10545 10547 10551 10558 10563 10566 10571 10575 10578 10582 10586 10588 10590 10593 10594 10598 10601 10603 10606 10610 10613 10615 10615 10616 10618 10621 10622 10623 10625 10627 10631 10636 10640 10642 10643 10645 10646 10647 10647 10648 10648 10649 10650 10650 10650 10651 10650 10649 10647 10645 10643 10641 10640 10638 10637 10635 10633 10631 10629 10626 10624 10620 10616 10613 10611 10609 10608 10607 10608 10609 10613 10618 10622 10627 10632 10636 10637
10489 10491 10494 10499 10504 10512 10521 10529 10534 10537 10540 10547 10554 10556 10560 10566 10570 10572 10576 10582 10585 10587 10588 10590 10592 10594 10598 10603 10606 10609 10610 10609 10611 10613 10615 10616 10618 10620 10623 10627 10631 10635 10637 10639 10641 10642 10642 10643 10643 10644 10644 10645 10646 10646 10646 10646 10644 10642 10640 10638 10637 10635 10634 10632 10631 10629 10627 10625 10622 10620 10617 10613 10610 10608 10607 10606 10606 10607 10607 10607 10610 10615 10619 10626 10632 10635
10482 10485 10488 10494 10503 10510 10516 10521 10525 10528 10533 10540 10544 10547 10552 10558 10562 10566 10572 10577 10580 10581 10583 10583 10584 10588 10595 10599 10602 10604 10604 10603 10605 10607 10609 10611 10614 10616 10619 10623 10626 10630 10632 10634 10636 10637 10637 10638 10639 10639 10640 10641 10641 10641 10642 10641 10639 10637 10635 10633 10632 10631 10629 10628 10626 10625 10623 10621 10619 10616 10614 10610 10608 10606 10605 10605 10605 10605 10605 10605 10609 10613 10617 10622 10629 10635
10475 10480 10484 10490 10497 10501 10506 10511 10516 10520 10526 10533 10536 10541 10548 10554 10558 10563 10567 10569 10571 10573 10576 10576 10578 10584 10591 10596 10599 10598 10598 10598 10599 10601 10605 10607 10609 10612 10615 10618 10622 10625 10628 10630 10631 10632 10633 10633 10634 10634 10635 10636 10637 10637 10637 10637 10635 10633 10631 10629 10627 10626 10625 10624 10622 10621 10619 10618 10616 10613 10611 10608 10605 10604 10604 10604 10605 10604 10604 10605 10609 10613 10617 10621 10627 10634
10470 10475 10481 10485 10488 10492 10499 10504 10508 10514 10522 10527 10531 10537 10544 10549 10553 10557 10559 10560 10562 10567 10569 10570 10573 10580 10586 10591 10593 10590 10591 10593 10595 10598 10601 10602 10604 10608 10611 10615 10618 10621 10623 10625 10627 10628 10628 10628 10629 10630 10631 10632 10632 10633 10633 10632 10631 10628 10626 10625 10623 10622 10621 10619 10619 10617 10616 10614 10613 10610 10608 10605 10603 10602 10602 10603 10604 10604 10603 10604 10608 10611 10613 10618 10623 10629
10465 10470 10474 10477 10481 10487 10496 10502 10508 10515 10520 10524 10528 10534 10540 10543 10548 10552 10553 10554 10558 10564 10565 10564 10567 10573 10580 10586 10586 10584 10585 10588 10590 10594 10596 10597 10600 10604 10607 10610 10613 10616 10619 10621 10623 10623 10623 10624 10625 10626 10627 10627 10628 10629 10629 10628 10626 10624 10622 10620 10619 10618 10616 10616 10615 10614 10612 10611 10610 10607 10605 10603 10601 10600 10601 10602 10602 10603 10603 10604 10607 10609 10610 10613 10618 10622
10462 10465 10470 10473 10477 10484 10491 10496 10502 10508 10513 10519 10525 10530 10535 10539 10544 10546 10547 10550 10557 10560 10558 10557 10561 10569 10577 10581 10580 10579 10581 10582 10585 10589 10591 10593 10596 10599 10603 10606 10609 10612 10614 10616 10618 10617 10618 10620 10620 10621 10622 10623 10624 10624 10624 10623 10621 10619 10617 10616 10614 10613 10612 10612 10611 10610 10609 10608 10607 10604 10602 10601 10599 10598 10599 10600 10600 10601 10602 10603 10605 10607 10607 10609 10614 10617
10459 10464 10469 10471 10475 10481 10487 10491 10497 10502 10507 10513 10518 10523 10528 10533 10538 10540 10543 10549 10552 10551 10551 10553 10557 10564 10571 10574 10574 10575 10576 10577 10580 10585 10587 10589 10592 10596 10599 10601 10604 10607 10609 10612 10613 10612 10613 10615 10616 10617 10618 10618 10619 10620 10619 10618 10616 10614 10613 10611 10610 10609 10609 10608 10607 10606 10605 10604 10603 10601 10599 10598 10597 10596 10597 10598 10598 10599 10599 10600 10602 10604 10604 10606 10609 10613
10455 10461 10465 10468 10472 10477 10483 10488 10493 10498 10502 10507 10510 10516 10521 10526 10530 10535 10540 10543 10542 10542 10545 10550 10554 10560 10565 10568 10569 10569 10571 10573 10576 10580 10583 10585 10588 10591 10594 10596 10599 10602 10605 10607 10607 10607 10609 10610 10611 10612 10613 10614 10615 10614 10614 10612 10610 10609 10608 10607 10606 10605 10605 10604 10603 10602 10601 10600 10599 10598 10596 10595 10594 10594 10594 10595 10596 10597 10596 10597 10599 10600 10601 10602 10605 10609
10452 10458 10463 10466 10470 10474 10479 10484 10488 10492 10496 10501 10505 10510 10514 10518 10522 10526 10530 10533 10533 10535 10541 10546 10550 10555 10559 10561 10563 10564 10567 10569 10572 10575 10578 10581 10584 10586 10589 10591 10593 10597 10600 10602 10602 10603 10604 10606 10606 10607 10608 10609 10610 10609 10608 10606 10605 10604 10603 10602 10602 10601 10601 10600 10599 10598 10597 10596 10596 10594 10593 10592 10591 10591 10591 10592 10593 10594 10595 10595 10596 10597 10598 10599 10601 10604
10450 10456 10461 10463 10465 10470 10476 10480 10484 10487 10491 10495 10499 10503 10507 10511 10515 10519 10523 10527 10530 10535 10540 10543 10545 10549 10552 10555 10558 10560 10562 10565 10567 10570 10573 10575 10578 10581 10583 10585 10589 10593 10595 10597 10598 10599 10600 10601 10601 10602 10603 10604 10604 10603 10602 10601 10600 10599 10598 10598 10597 10597 10597 10597 10596 10595 10593 10592 10592 10591 10590 10589 10588 10588 10587 10588 10590 10591 10592 10592 10593 10594 10595 10596 10598 10600
10445 10451 10456 10458 10461 10467 10473 10477 10481 10483 10486 10491 10494 10498 10503 10507 10511 10515 10520 10524 10529 10532 10535 10537 10539 10543 10547 10550 10553 10555 10558 10561 10564 10566 10568 10571 10574 10576 10578 10581 10585 10588 10590 10592 10593 10594 10595 10595 10596 10597 10598 10598 10598 10597 10596 10595 10595 10594 10593 10593 10592 10592 10592 10592 10592 10591 10589 10588 10587 10587 10587 10585 10584 10584 10584 10584 10586 10587 10588 10589 10590 10591 10592 10593 10594 10596
10439 10445 10450 10454 10458 10464 10470 10475 10479 10480 10483 10486 10491 10496 10501 10504 10507 10511 10515 10520 10525 10526 10529 10533 10535 10537 10541 10545 10548 10551 10554 10556 10559 10561 10564 10567 10569 10571 10574 10577 10580 10582 10585 10587 10588 10588 10589 10590 10591 10591 10592 10592 10592 10592 10591 10590 10590 10589 10589 10588 10588 10588 10587 10587 10587 10586 10585 10584 10583 10583 10583 10582 10581 10580 10580 10581 10581 10583 10585 10585 10586 10587 10588 10589 10591 10592
10435 10440 10444 10449 10454 10460 10467 10472 10474 10477 10480 10484 10489 10494 10498 10501 10504 10507 10512 10517 10520 10521 10524 10528 10530 10532 10537 10540 10543 10546 10549 10551 10554 10557 10560 10562 10564 10567 10570 10573 10575 10577 10580 10582 10583 10584 10584 10585 10586 10586 10586 10587 10587 10586 10586 10585 10585 10585 10584 10583 10583 10583 10582 10582 10582 10581 10580 10579 10579 10578 10578 10578 10577 10576 10576 10577 10577 10578 10580 10581 10582 10582 10583 10585 10587 10588
10432 10435 10440 10446 10450 10456 10463 10468 10471 10474 10478 10481 10485 10491 10495 10499 10501 10504 10508 10513 10516 10518 10521 10524 10527 10530 10534 10536 10539 10542 10544 10547 10550 10552 10555 10557 10560 10562 10565 10568 10569 10572 10575 10577 10578 10579 10579 10580 10580 10581 10581 10581 10581 10581 10581 10580 10580 10580 10579 10578 10578 10578 10577 10577 10576 10576 10575 10574 10573 10573 10573 10573 10573 10572 10572 10572 10573 10573 10575 10576 10577 10577 10578 10580 10581 10582
10432 10436 10441 10446 10450 10454 10460 10465 10469 10473 10475 10477 10482 10487 10491 10495 10498 10501 10505 10509 10512 10514 10517 10519 10522 10525 10529 10532 10535 10538 10540 10543 10545 10548 10550 10553 10555 10558 10561 10563 10565 10567 10570 10572 10573 10574 10574 10574 10575 10575 10575 10575 10576 10576 10575 10575 10575 10575 10574 10573 10572 10572 10572 10571 10570 10570 10570 10569 10568 10567 10567 10568 10568 10567 10567 10567 10568 10568 10569 10571 10572 10573 10573 10574 10575 10576
10435 10439 10443 10447 10451 10455 10458 10462 10466 10469 10471 10475 10480 10484 10487 10491 10495 10498 10502 10505 10507 10510 10512 10514 10517 10521 10524 10528 10531 10534 10536 10539 10541 10544 10546 10548 10551 10553 10556 10558 10560 10562 10564 10566 10568 10568 10569 10569 10569 10569 10569 10570 10570 10570 10569 10569 10569 10569 10568 10568 10567 10566 10565 10565 10564 10564 10563 10563 10563 10562 10561 10562 10562 10563 10562 10562 10562 10563 10564 10565 10566 10567 10568 10569 10569 10570
10436 10439 10443 10446 10449 10453 10457 10461 10463 10465 10468 10473 10478 10481 10484 10488 10491 10494 10497 10500 10503 10505 10508 10511 10514 10517 10521 10524 10527 10530 10533 10535 10538 10540 10542 10544 10546 10548 10551 10553 10555 10557 10558 10560 10562 10563 10563 10563 10564 10563 10563 10564 10565 10565 10564 10563 10563 10562 10562 10561 10560 10559 10559 10558 10558 10557 10557 10557 10557 10556 10555 10555 10555 10557 10557 10556 10556 10557 10558 10559 10560 10561 10562 10563 10563 10564
10435 10439 10442 10445 10449 10452 10456 10459 10460 10463 10467 10471 10475 10478 10481 10484 10487 10490 10493 10497 10500 10502 10505 10508 10511 10514 10517 10520 10523 10526 10529 10531 10533 10535 10538 10540 10541 10544 10547 10548 10550 10551 10552 10554 10555 10557 10558 10558 10557 10557 10557 10558 10559 10559 10558 10557 10557 10556 10555 10554 10553 10553 10552 10551 10551 10550 10550 10550 10549 10549 10549 10548 10548 10549 10550 10551 10550 10550 10551 10552 10553 10554 10555 10556 10557 10557
10433 10436 10440 10444 10448 10451 10454 10455 10457 10461 10464 10467 10470 10474 10477 10480 10483 10487 10491 10495 10497 10500 10503 10505 10508 10511 10513 10516 10519 10522 10525 10526 10528 10531 10534 10535 10537 10539 10541 10542 10544 10545 10546 10547 10549 10550 10551 10551 10551 10551 10552 10553 10553 10553 10552 10551 10551 10550 10549 10548 10547 10546 10545 10544 10543 10543 10542 10542 10542 10542 10542 10541 10541 10541 10542 10544 10544 10544 10544 10545 10546 10547 10548 10549 10550 10550
10430 10432 10436 10440 10444 10447 10450 10452 10455 10458 10460 10462 10466 10470 10473 10476 10479 10485 10489 10491 10493 10496 10498 10501 10503 10506 10509 10512 10515 10517 10519 10521 10523 10527 10529 10530 10531 10533 10535 10537 10538 10539 10540 10541 10543 10543 10544 10544 10544 10544 10546 10547 10547 10546 10545 10545 10544 10543 10543 10542 10540 10539 10538 10537 10536 10535 10535 10534 10534 10534 10534 10534 10533 10533 10534 10535 10536 10536 10536 10537 10538 10539 10540 10541 10542 10543
10427 10430 10433 10437 10440 10443 10446 10449 10452 10454 10456 10459 10463 10466 10469 10473 10478 10483 10486 10486 10488 10491 10493 10496 10498 10501 10504 10507 10509 10511 10514 10517 10519 10522 10523 10524 10526 10528 10529 10531 10532 10533 10535 10536 10536 10537 10537 10537 10537 10538 10539 10540 10541 10540 10539 10538 10537 10536 10536 10535 10534 10532 10531 10530 10529 10528 10527 10527 10526 10526 10525 10525 10525 10525 10525 10526 10527 10528 10528 10528 10529 10530 10531 10533 10534 10535
10424 10427 10430 10433 10436 10438 10441 10444 10447 10449 10452 10456 10460 10463 10467 10472 10476 10478 10479 10480 10482 10485 10488 10491 10494 10497 10500 10502 10505 10507 10510 10512 10514 10516 10517 10518 10520 10522 10523 10524 10526 10527 10529 10529 10529 10530 10530 10530 10531 10531 10532 10533 10533 10533 10532 10531 10531 10529 10528 10527 10526 10525 10524 10522 10521 10520 10519 10519 10518 10517 10517 10516 10516 10516 10517 10517 10517 10518 10519 10520 10520 10521 10522 10524 10525 10526
10422 10425 10427 10430 10433 10435 10438 10440 10442 10444 10448 10453 10456 10460 10463 10467 10470 10472 10474 10475 10478 10481 10485 10488 10490 10493 10495 10498 10500 10502 10505 10507 10509 10510 10511 10512 10514 10516 10517 10518 10519 10522 10523 10522 10523 10523 10523 10524 10524 10525 10526 10526 10525 10525 10524 10524 10523 10522 10521 10520 10519 10518 10517 10515 10514 10512 10511 10510 10510 10509 10508 10508 10507 10507 10508 10508 10508 10509 10510 10510 10511 10511 10513 10514 10515 10516
10420 10422 10424 10427 10430 10432 10435 10437 10439 10442 10447 10451 10453 10456 10460 10463 10466 10468 10470 10472 10475 10478 10481 10484 10486 10488 10490 10493 10495 10497 10500 10502 10503 10504 10506 10508 10509 10510 10511 10512 10513 10515 10516 10516 10517 10517 10517 10517 10518 10518 10519 10518 10517 10517 10516 10516 10515 10514 10514 10512 10511 10510 10509 10508 10506 10504 10503 10502 10501 10500 10499 10499 10498 10498 10498 10498 10499 10499 10500 10501 10502 10502 10503 10504 10505 10507
10417 10420 10421 10424 10427 10430 10433 10435 10437 10441 10445 10448 10450 10453 10457 10460 10462 10465 10467 10469 10471 10474 10477 10479 10481 10483 10486 10488 10490 10493 10495 10497 10498 10499 10501 10502 10503 10503 10504 10506 10507 10508 10509 10511 10511 10512 10511 10511 10511 10511 10511 10511 10510 10509 10508 10507 10507 10506 10505 10504 10503 10502 10501 10499 10498 10496 10495 10493 10492 10491 10490 10490 10489 10489 10489 10489 10489 10490 10490 10491 10492 10493 10494 10494 10495 10496
10415 10417 10419 10422 10425 10428 10430 10432 10435 10438 10441 10443 10446 10450 10453 10455 10458 10461 10463 10465 10467 10469 10472 10474 10476 10478 10481 10483 10486 10488 10490 10492 10493 10494 10495 10496 10496 10497 10498 10499 10500 10501 10502 10503 10505 10506 10505 10504 10504 10504 10503 10503 10502 10501 10500 10499 10498 10497 10497 10495 10494 10493 10491 10490 10489 10487 10486 10484 10483 10482 10481 10481 10480 10480 10480 10480 10480 10480 10481 10481 10482 10483 10484 10485 10485 10486
10411 10413 10416 10419 10421 10424 10426 10428 10431 10434 10437 10439 10442 10445 10448 10451 10454 10456 10458 10460 10462 10464 10467 10469 10471 10473 10475 10478 10480 10482 10484 10485 10487 10488 10489 10490 10490 10491 10492 10493 10494 10495 10495 10496 10497 10498 10497 10497 10497 10496 10495 10494 10493 10492 10492 10491 10490 10489 10488 10487 10485 10484 10482 10480 10479 10477 10476 10475 10474 10473 10472 10472 10472 10471 10471 10471 10471 10471 10471 10471 10472 10472 10473 10474 10475 10476
10406 10409 10412 10414 10417 10420 10422 10424 10427 10430 10433 10436 10438 10441 10444 10447 10449 10451 10454 10456 10458 10459 10461 10463 10465 10468 10470 10472 10474 10476 10478 10479 10481 10482 10483 10484 10484 10485 10486 10487 10488 10489 10489 10489 10490 10490 10489 10489 10489 10488 10487 10486 10485 10484 10483 10482 10481 10480 10479 10478 10476 10475 10473 10471 10469 10467 10466 10465 10464 10464 10463 10463 10463 10463 10462 10462 10461 10461 10461 10461 10461 10462 10462 10462 10463 10465
10402 10405 10407 10409 10412 10415 10418 10420 10423 10426 10428 10430 10433 10436 10439 10442 10444 10447 10449 10450 10452 10454 10456 10458 10461 10463 10465 10466 10468 10470 10472 10473 10475 10476 10477 10478 10479 10479 10480 10481 10482 10482 10483 10482 10482 10482 10481 10481 10480 10479 10479 10478 10477 10476 10475 10474 10473 10472 10470 10469 10467 10465 10463 10462 10460 10459 10458 10457 10456 10455 10454 10454 10454 10453 10453 10453 10452 10451 10451 10451 10451 10451 10451 10452 10452 10453
10396 10399 10401 10405 10408 10410 10412 10415 10418 10420 10422 10425 10427 10430 10434 10437 10439 10441 10443 10445 10447 10449 10451 10454 10456 10457 10458 10460 10462 10464 10466 10467 10468 10469 10470 10471 10473 10474 10474 10475 10475 10475 10476 10475 10475 10475 10474 10473 10472 10471 10470 10470 10469 10468 10467 10466 10464 10463 10461 10459 10457 10456 10454 10453 10452 10451 10450 10449 10448 10447 10446 10445 10444 10444 10443 10443 10442 10441 10441 10440 10440 10440 10440 10441 10441 10442